sat.trackr.live / text

‹ back to catalog

STARLINK-3742

NORAD 52303 · 2022-041AU

PAYLOAD ACTIVE UNKNOWN

§ Identity

Operator
Country
US
Launch date
2022-04-21
Launch site
AFETR
Launch vehicle
Mass (kg)
RCS (m²)

Purposes: comms

External: N2YO · Heavens-Above · Gunter

§ Orbital elements

Epoch: 2026-05-25T02:27:24.774048Z

Period
95.44 min
Inclination
53.2146°
Eccentricity
0.0001155
Mean motion
15.08837276 rev/d
Perigee alt
539.0 km
Apogee alt
540.6 km
Semi-major
6,917.9 km
B*
6.3973e-5
RAAN
116.0900°
Arg perigee
84.9997°
Mean anomaly
275.1127°
Rev number
22,726

§ Raw data

STARLINK-37421 52303U 22041AU  26145.10237007  .00000730  00000+0  63973-4 0  99912 52303  53.2146 116.0900 0001155  84.9997 275.1127 15.08837276227262

JSON: /api/v1/satellites/52303 · /tle

For live sub-satellite position, see the globe view (requires WebGL).

§ Visibility from observer

Set your observer location to see the next 7 days of passes ≥ 10°. The values pass through the URL so the page stays shareable.

No JS? Fill the form by hand. The geolocation button needs JavaScript.